KUIPER-00266

导读 | 豆包AI

KUIPER-00266是亚马逊柯伊伯(Kuiper)低轨宽带卫星星座的成员,于2026年2月12日由法国阿丽亚娜6号火箭发射升空,属于星座部署批次中的一颗卫星。该卫星运行在近地轨道,配备多波束相控阵天线,工作于Ka波段,可灵活分配通信容量,旨在为全球提供高速低延迟卫星宽带服务,助力柯伊伯星座弥补欠发达地区的数字鸿沟。

Basic Information
目录编号:
67789
目录名称:
KUIPER-00266
国际标识:
2026-030AB
轨道中心:
EARTH
卫星名称:
KUIPER-00266
卫星全名:
KUIPER-00266
卫星状态:
在轨 (已飞行102 天)
发射日期:
2026-02-12 UTC
国别 :
美国 (US)
星等 :
--
Orbit Information
数据来源 国际轨道数据
星历时间: 2026-05-24T12:00:02+0800
1天前
查看轨道信息
半长轴: 6921.664km
偏心率: 0.0021285
轨道倾角: 51.890°
近地点辐角 344.379°
升交点赤经 220.778°
平近点角 12.774°
近地点: 528.794km
远地点: 558.26km
周期: 95.516分钟
每日圈数: 15.076032
Detailed Information
使用方式:
暂无
2D Orbit Map
3D Orbit Map
Orbit Altitude Analysis Chart
Orbit Inclination Analysis Chart
Orbit Comprehensive Analysis Chart
View Comprehensive Chart